QPF
0.02 0.04 0.08 0.10 0.10 0.09 0.05 0.06 0.05 0.05 0.07 0.07 0.06 0.06 0.04 0.04 0.04 0.05 0.06 0.05 0.05 0.06 0.08 0.13 0.13 0.09 0.08 0.07 0.07 0.08 0.09 0.10 0.09 0.09 0.11 0.14 0.11 0.09 0.08 0.08 0.08 0.09 0.11
0.01 0.03 0.07 0.07 0.06 0.08 0.06 0.04 0.04 0.04 0.05 0.06 0.05 0.05 0.05 0.05 0.06 0.05 0.05 0.05 0.04 0.04 0.07 0.10 0.12 0.13 0.13 0.12 0.12 0.11 0.10 0.10 0.12 0.11 0.11 0.11 0.10 0.11 0.09 0.09 0.07 0.06 0.08
0.01 0.02 0.05 0.06 0.05 0.05 0.05 0.06 0.05 0.04 0.06 0.06 0.05 0.04 0.05 0.06 0.07 0.05 0.04 0.04 0.03 0.04 0.06 0.08 0.07 0.06 0.07 0.08 0.08 0.10 0.09 0.10 0.11 0.08 0.06 0.06 0.09 0.13 0.11 0.10 0.10 0.09 0.08
0.02 0.01 0.04 0.06 0.05 0.07 0.06 0.05 0.05 0.06 0.06 0.06 0.04 0.04 0.12 0.17 0.12 0.06 0.04 0.03 0.03 0.04 0.06 0.06 0.04 0.03 0.03 0.04 0.07 0.08 0.07 0.08 0.08 0.06 0.04 0.04 0.05 0.08 0.09 0.10 0.09 0.09 0.08
0.01 0.00 0.02 0.05 0.03 0.04 0.05 0.04 0.04 0.04 0.07 0.07 0.05 0.04 0.08 0.11 0.08 0.06 0.04 0.04 0.04 0.05 0.04 0.04 0.03 0.03 0.03 0.06 0.08 0.08 0.08 0.08 0.06 0.03 0.01 0.01 0.02 0.06 0.08 0.08 0.08 0.07 0.07
0.01 0.00 0.02 0.03 0.03 0.04 0.04 0.04 0.05 0.04 0.06 0.05 0.05 0.05 0.05 0.05 0.06 0.06 0.05 0.08 0.06 0.04 0.04 0.02 0.02 0.03 0.04 0.07 0.08 0.08 0.08 0.08 0.06 0.03 0.02 0.03 0.03 0.07 0.09 0.10 0.10 0.09 0.09
0.00 0.00 0.02 0.04 0.04 0.06 0.06 0.06 0.07 0.05 0.06 0.06 0.06 0.05 0.05 0.05 0.06 0.06 0.10 0.15 0.06 0.05 0.04 0.02 0.03 0.04 0.06 0.07 0.06 0.05 0.08 0.10 0.07 0.04 0.03 0.02 0.03 0.07 0.09 0.09 0.08 0.09 0.11
0.00 0.00 0.01 0.03 0.03 0.03 0.04 0.05 0.06 0.07 0.07 0.08 0.07 0.05 0.04 0.04 0.05 0.05 0.07 0.07 0.05 0.05 0.03 0.03 0.03 0.04 0.04 0.04 0.02 0.01 0.02 0.02 0.01 0.02 0.01 0.01 0.03 0.05 0.07 0.07 0.07 0.09 0.11
0.00 0.00 0.01 0.01 0.02 0.03 0.05 0.05 0.05 0.05 0.04 0.04 0.04 0.04 0.02 0.03 0.04 0.05 0.05 0.06 0.05 0.05 0.03 0.02 0.03 0.04 0.03 0.02 0.01 0.01 0.01 0.00 0.00 0.01 0.00 0.01 0.02 0.04 0.05 0.04 0.05 0.06 0.07
0.01 0.01 0.01 0.01 0.01 0.01 0.02 0.04 0.03 0.03 0.03 0.03 0.03 0.03 0.03 0.04 0.03 0.03 0.03 0.03 0.03 0.03 0.04 0.02 0.02 0.03 0.02 0.01 0.01 0.01 0.00 0.00 0.00 0.01 0.01 0.02 0.04 0.05 0.06 0.05 0.05 0.06 0.08
0.01 0.01 0.01 0.00 0.00 0.00 0.00 0.02 0.02 0.02 0.02 0.02 0.02 0.03 0.03 0.01 0.01 0.01 0.02 0.02 0.02 0.02 0.03 0.03 0.02 0.02 0.02 0.01 0.01 0.01 0.00 0.00 0.00 0.01 0.02 0.04 0.04 0.05 0.06 0.06 0.06 0.07 0.08
0.02 0.02 0.02 0.01 0.00 0.01 0.01 0.00 0.01 0.01 0.01 0.01 0.01 0.01 0.01 0.01 0.02 0.01 0.01 0.01 0.01 0.01 0.02 0.02 0.01 0.01 0.01 0.00 0.01 0.01 0.00 0.01 0.03 0.03 0.05 0.06 0.05 0.04 0.05 0.05 0.06 0.07 0.07
0.02 0.02 0.02 0.02 0.02 0.01 0.01 0.01 0.01 0.01 0.01 0.01 0.01 0.01 0.01 0.02 0.01 0.00 0.00 0.00 0.01 0.01 0.00 0.00 0.00 0.00 0.00 0.00 0.00 0.00 0.00 0.01 0.04 0.03 0.04 0.06 0.06 0.05 0.06 0.06 0.05 0.06 0.07
0.02 0.02 0.02 0.02 0.02 0.02 0.01 0.01 0.01 0.01 0.01 0.01 0.01 0.01 0.02 0.01 0.01 0.01 0.00 0.00 0.00 0.00 0.00 0.00 0.00 0.00 0.00 0.00 0.00 0.00 0.00 0.01 0.01 0.02 0.03 0.04 0.05 0.07 0.06 0.05 0.05 0.06 0.05
0.02 0.02 0.02 0.02 0.02 0.02 0.02 0.02 0.02 0.02 0.01 0.01 0.02 0.02 0.02 0.02 0.02 0.01 0.01 0.00 0.00 0.00 0.00 0.00 0.00 0.00 0.00 0.00 0.00 0.00 0.00 0.01 0.01 0.01 0.03 0.04 0.05 0.06 0.06 0.05 0.04 0.04 0.04
0.01 0.02 0.03 0.03 0.02 0.03 0.03 0.03 0.03 0.02 0.02 0.02 0.02 0.02 0.02 0.01 0.02 0.02 0.01 0.01 0.01 0.01 0.01 0.01 0.01 0.00 0.00 0.00 0.00 0.01 0.00 0.00 0.01 0.01 0.02 0.03 0.05 0.06 0.05 0.05 0.05 0.04 0.04
0.01 0.02 0.03 0.04 0.05 0.05 0.04 0.03 0.03 0.03 0.03 0.02 0.02 0.02 0.02 0.01 0.01 0.00 0.00 0.01 0.01 0.01 0.01 0.01 0.01 0.01 0.00 0.00 0.01 0.01 0.00 0.00 0.00 0.00 0.01 0.01 0.03 0.05 0.06 0.07 0.07 0.05 0.04
0.01 0.01 0.02 0.02 0.03 0.04 0.04 0.03 0.03 0.03 0.03 0.03 0.03 0.04 0.03 0.02 0.01 0.01 0.01 0.01 0.01 0.00 0.01 0.01 0.01 0.01 0.01 0.00 0.01 0.01 0.01 0.00 0.01 0.01 0.01 0.01 0.01 0.02 0.04 0.04 0.07 0.10 0.07
0.01 0.01 0.01 0.01 0.01 0.01 0.03 0.03 0.03 0.03 0.03 0.04 0.05 0.04 0.03 0.02 0.02 0.02 0.01 0.01 0.01 0.01 0.01 0.01 0.01 0.01 0.01 0.01 0.01 0.01 0.01 0.01 0.02 0.02 0.04 0.04 0.04 0.03 0.02 0.02 0.07 0.14 0.12
0.02 0.02 0.01 0.01 0.01 0.01 0.02 0.03 0.04 0.04 0.05 0.05 0.05 0.05 0.05 0.04 0.03 0.03 0.02 0.01 0.01 0.01 0.01 0.01 0.01 0.01 0.01 0.01 0.02 0.01 0.00 0.01 0.02 0.02 0.03 0.04 0.03 0.03 0.03 0.03 0.05 0.08 0.09
0.02 0.02 0.01 0.01 0.01 0.01 0.01 0.02 0.03 0.04 0.05 0.05 0.05 0.06 0.07 0.05 0.04 0.03 0.02 0.02 0.01 0.01 0.01 0.02 0.02 0.02 0.02 0.01 0.02 0.01 0.01 0.01 0.01 0.02 0.02 0.02 0.02 0.02 0.02 0.03 0.04 0.05 0.06
0.03 0.03 0.02 0.01 0.01 0.01 0.01 0.01 0.02 0.03 0.03 0.03 0.04 0.05 0.06 0.05 0.04 0.03 0.02 0.01 0.01 0.01 0.02 0.02 0.02 0.02 0.02 0.02 0.03 0.04 0.04 0.03 0.02 0.02 0.04 0.05 0.04 0.03 0.03 0.03 0.04 0.04 0.05
0.01 0.01 0.01 0.02 0.03 0.03 0.02 0.02 0.03 0.04 0.04 0.03 0.02 0.04 0.05 0.06 0.05 0.04 0.04 0.02 0.01 0.01 0.01 0.02 0.03 0.02 0.02 0.02 0.03 0.05 0.07 0.08 0.07 0.06 0.08 0.10 0.11 0.10 0.09 0.08 0.07 0.05 0.05
0.00 0.01 0.01 0.01 0.02 0.03 0.03 0.04 0.05 0.04 0.03 0.03 0.02 0.02 0.04 0.06 0.07 0.06 0.05 0.03 0.02 0.02 0.03 0.03 0.03 0.03 0.02 0.02 0.02 0.02 0.02 0.03 0.04 0.06 0.08 0.08 0.10 0.12 0.13 0.12 0.10 0.08 0.07
0.00 0.01 0.01 0.01 0.02 0.04 0.03 0.05 0.06 0.05 0.03 0.03 0.03 0.03 0.03 0.04 0.05 0.06 0.06 0.06 0.05 0.04 0.04 0.04 0.04 0.04 0.03 0.02 0.02 0.02 0.01 0.01 0.01 0.02 0.04 0.05 0.06 0.07 0.06 0.06 0.06 0.08 0.09
0.01 0.01 0.02 0.02 0.03 0.03 0.03 0.05 0.05 0.04 0.03 0.03 0.02 0.03 0.03 0.04 0.03 0.04 0.05 0.06 0.07 0.07 0.06 0.04 0.04 0.04 0.03 0.02 0.02 0.02 0.01 0.01 0.00 0.01 0.01 0.02 0.03 0.04 0.03 0.03 0.03 0.05 0.06
MSLP
1016.34 1015.66 1015.09 1014.70 1014.51 1014.50 1014.62 1014.79 1014.95 1015.05 1015.05 1014.98 1014.89 1014.81 1014.79 1014.85 1015.00 1015.18 1015.38 1015.53 1015.62 1015.64 1015.59 1015.52 1015.44 1015.39 1015.38 1015.39 1015.41 1015.40 1015.35 1015.25 1015.11 1014.94 1014.77 1014.62 1014.50 1014.42 1014.36 1014.31 1014.24 1014.16 1014.07
1016.45 1015.82 1015.29 1014.95 1014.80 1014.82 1014.95 1015.13 1015.28 1015.36 1015.35 1015.29 1015.20 1015.16 1015.18 1015.28 1015.45 1015.66 1015.84 1015.97 1016.02 1015.99 1015.91 1015.79 1015.69 1015.61 1015.58 1015.56 1015.55 1015.51 1015.42 1015.28 1015.10 1014.89 1014.69 1014.52 1014.38 1014.28 1014.19 1014.12 1014.03 1013.94 1013.84
1016.46 1015.90 1015.43 1015.15 1015.05 1015.11 1015.27 1015.46 1015.61 1015.69 1015.68 1015.62 1015.56 1015.53 1015.58 1015.70 1015.87 1016.05 1016.20 1016.28 1016.27 1016.19 1016.05 1015.90 1015.77 1015.67 1015.62 1015.59 1015.56 1015.50 1015.39 1015.22 1015.02 1014.80 1014.58 1014.40 1014.24 1014.12 1014.01 1013.90 1013.79 1013.67 1013.54
1016.38 1015.89 1015.50 1015.29 1015.25 1015.36 1015.56 1015.76 1015.93 1016.01 1016.02 1015.97 1015.92 1015.91 1015.96 1016.06 1016.20 1016.34 1016.43 1016.44 1016.37 1016.22 1016.04 1015.86 1015.71 1015.61 1015.55 1015.52 1015.48 1015.41 1015.29 1015.13 1014.92 1014.70 1014.49 1014.29 1014.13 1013.98 1013.85 1013.71 1013.56 1013.40 1013.25
1016.25 1015.82 1015.51 1015.37 1015.40 1015.57 1015.80 1016.03 1016.21 1016.30 1016.32 1016.29 1016.25 1016.24 1016.28 1016.35 1016.45 1016.53 1016.54 1016.48 1016.34 1016.15 1015.94 1015.74 1015.58 1015.48 1015.43 1015.40 1015.36 1015.29 1015.18 1015.02 1014.83 1014.62 1014.42 1014.23 1014.06 1013.90 1013.74 1013.57 1013.38 1013.18 1012.98
1016.12 1015.76 1015.52 1015.45 1015.54 1015.74 1016.01 1016.25 1016.44 1016.54 1016.56 1016.54 1016.51 1016.50 1016.52 1016.57 1016.62 1016.63 1016.58 1016.46 1016.28 1016.05 1015.82 1015.62 1015.47 1015.38 1015.33 1015.31 1015.27 1015.21 1015.10 1014.96 1014.78 1014.59 1014.40 1014.22 1014.04 1013.87 1013.68 1013.48 1013.25 1013.01 1012.78
1016.07 1015.76 1015.57 1015.56 1015.69 1015.92 1016.18 1016.43 1016.61 1016.71 1016.73 1016.71 1016.69 1016.68 1016.70 1016.72 1016.73 1016.70 1016.61 1016.45 1016.24 1016.00 1015.77 1015.58 1015.44 1015.36 1015.32 1015.29 1015.25 1015.18 1015.07 1014.93 1014.76 1014.58 1014.40 1014.23 1014.05 1013.87 1013.66 1013.43 1013.17 1012.91 1012.65
1016.17 1015.89 1015.74 1015.76 1015.90 1016.12 1016.37 1016.59 1016.74 1016.82 1016.84 1016.82 1016.81 1016.81 1016.83 1016.85 1016.84 1016.78 1016.67 1016.49 1016.27 1016.04 1015.82 1015.65 1015.53 1015.45 1015.41 1015.37 1015.31 1015.22 1015.09 1014.94 1014.76 1014.59 1014.41 1014.24 1014.07 1013.88 1013.66 1013.41 1013.14 1012.85 1012.58
1016.46 1016.19 1016.06 1016.08 1016.21 1016.40 1016.60 1016.76 1016.87 1016.91 1016.91 1016.90 1016.90 1016.92 1016.95 1016.97 1016.97 1016.90 1016.78 1016.60 1016.38 1016.17 1015.97 1015.82 1015.72 1015.65 1015.59 1015.53 1015.43 1015.30 1015.14 1014.96 1014.77 1014.59 1014.41 1014.25 1014.07 1013.88 1013.66 1013.41 1013.13 1012.85 1012.59
1016.92 1016.66 1016.54 1016.55 1016.65 1016.78 1016.91 1017.00 1017.04 1017.04 1017.03 1017.02 1017.03 1017.07 1017.11 1017.14 1017.14 1017.07 1016.94 1016.77 1016.56 1016.37 1016.19 1016.06 1015.96 1015.89 1015.82 1015.72 1015.58 1015.41 1015.20 1014.98 1014.77 1014.58 1014.40 1014.24 1014.07 1013.89 1013.68 1013.43 1013.17 1012.91 1012.66
1017.51 1017.27 1017.15 1017.14 1017.19 1017.26 1017.31 1017.33 1017.30 1017.26 1017.23 1017.22 1017.24 1017.29 1017.35 1017.38 1017.37 1017.29 1017.16 1016.97 1016.78 1016.59 1016.43 1016.31 1016.22 1016.14 1016.04 1015.90 1015.73 1015.50 1015.26 1015.01 1014.77 1014.57 1014.40 1014.25 1014.09 1013.93 1013.74 1013.52 1013.28 1013.04 1012.82
1018.19 1017.96 1017.85 1017.82 1017.83 1017.84 1017.82 1017.76 1017.69 1017.61 1017.56 1017.55 1017.58 1017.63 1017.69 1017.71 1017.67 1017.56 1017.40 1017.20 1016.99 1016.80 1016.65 1016.53 1016.44 1016.35 1016.23 1016.06 1015.85 1015.59 1015.30 1015.03 1014.78 1014.58 1014.42 1014.29 1014.16 1014.02 1013.86 1013.67 1013.46 1013.26 1013.07
1018.89 1018.69 1018.58 1018.54 1018.52 1018.47 1018.40 1018.30 1018.18 1018.09 1018.03 1018.02 1018.05 1018.10 1018.13 1018.11 1018.03 1017.88 1017.67 1017.43 1017.19 1016.99 1016.83 1016.71 1016.61 1016.51 1016.37 1016.18 1015.94 1015.65 1015.35 1015.06 1014.81 1014.61 1014.47 1014.37 1014.28 1014.18 1014.06 1013.91 1013.73 1013.55 1013.39
1019.58 1019.40 1019.31 1019.26 1019.21 1019.13 1019.03 1018.90 1018.78 1018.69 1018.64 1018.63 1018.65 1018.68 1018.66 1018.59 1018.45 1018.23 1017.96 1017.67 1017.40 1017.17 1016.99 1016.86 1016.75 1016.64 1016.48 1016.27 1016.00 1015.70 1015.38 1015.09 1014.85 1014.67 1014.55 1014.49 1014.44 1014.38 1014.30 1014.19 1014.04 1013.89 1013.74
1020.25 1020.09 1019.99 1019.93 1019.87 1019.78 1019.67 1019.56 1019.45 1019.37 1019.34 1019.33 1019.34 1019.33 1019.27 1019.13 1018.90 1018.61 1018.27 1017.93 1017.62 1017.36 1017.17 1017.02 1016.89 1016.76 1016.58 1016.34 1016.06 1015.73 1015.41 1015.11 1014.87 1014.71 1014.62 1014.59 1014.58 1014.56 1014.52 1014.45 1014.34 1014.20 1014.07
1020.92 1020.75 1020.64 1020.57 1020.49 1020.40 1020.31 1020.22 1020.15 1020.10 1020.09 1020.09 1020.08 1020.02 1019.90 1019.69 1019.39 1019.03 1018.63 1018.24 1017.90 1017.61 1017.39 1017.22 1017.07 1016.90 1016.70 1016.43 1016.11 1015.76 1015.41 1015.10 1014.86 1014.71 1014.63 1014.62 1014.64 1014.66 1014.65 1014.61 1014.52 1014.41 1014.29
1021.62 1021.42 1021.28 1021.18 1021.09 1021.00 1020.93 1020.88 1020.85 1020.84 1020.85 1020.85 1020.81 1020.71 1020.52 1020.25 1019.89 1019.47 1019.04 1018.62 1018.26 1017.95 1017.71 1017.51 1017.32 1017.11 1016.85 1016.54 1016.17 1015.78 1015.40 1015.06 1014.80 1014.63 1014.55 1014.53 1014.56 1014.59 1014.61 1014.59 1014.53 1014.45 1014.34
1022.39 1022.14 1021.95 1021.80 1021.69 1021.60 1021.56 1021.54 1021.55 1021.58 1021.59 1021.58 1021.51 1021.36 1021.12 1020.79 1020.39 1019.95 1019.50 1019.08 1018.71 1018.40 1018.14 1017.91 1017.67 1017.40 1017.08 1016.69 1016.26 1015.81 1015.38 1014.99 1014.69 1014.48 1014.37 1014.33 1014.34 1014.37 1014.39 1014.38 1014.34 1014.28 1014.20
1023.23 1022.93 1022.67 1022.47 1022.32 1022.24 1022.20 1022.22 1022.26 1022.30 1022.32 1022.29 1022.18 1021.98 1021.69 1021.33 1020.90 1020.46 1020.02 1019.62 1019.27 1018.96 1018.69 1018.42 1018.13 1017.79 1017.39 1016.93 1016.43 1015.91 1015.41 1014.96 1014.59 1014.33 1014.15 1014.05 1014.02 1014.01 1014.01 1014.01 1013.98 1013.94 1013.89
1024.13 1023.77 1023.45 1023.19 1023.02 1022.92 1022.90 1022.93 1022.99 1023.04 1023.05 1022.98 1022.83 1022.58 1022.26 1021.86 1021.44 1021.01 1020.61 1020.24 1019.92 1019.62 1019.34 1019.03 1018.69 1018.28 1017.81 1017.28 1016.70 1016.12 1015.56 1015.04 1014.61 1014.26 1014.00 1013.82 1013.71 1013.64 1013.59 1013.56 1013.53 1013.51 1013.48
1025.04 1024.63 1024.26 1023.97 1023.77 1023.66 1023.65 1023.69 1023.76 1023.80 1023.78 1023.68 1023.48 1023.19 1022.83 1022.43 1022.02 1021.63 1021.27 1020.94 1020.65 1020.37 1020.08 1019.75 1019.36 1018.90 1018.36 1017.77 1017.15 1016.52 1015.91 1015.34 1014.83 1014.40 1014.05 1013.76 1013.55 1013.38 1013.27 1013.18 1013.13 1013.10 1013.09
1025.88 1025.47 1025.08 1024.76 1024.55 1024.45 1024.44 1024.49 1024.56 1024.59 1024.54 1024.40 1024.16 1023.84 1023.46 1023.06 1022.67 1022.31 1022.00 1021.73 1021.47 1021.20 1020.90 1020.55 1020.12 1019.62 1019.06 1018.45 1017.80 1017.16 1016.52 1015.92 1015.36 1014.85 1014.40 1014.00 1013.66 1013.38 1013.17 1013.00 1012.90 1012.84 1012.82
1026.59 1026.21 1025.83 1025.52 1025.32 1025.24 1025.24 1025.30 1025.37 1025.38 1025.32 1025.14 1024.87 1024.53 1024.14 1023.76 1023.40 1023.08 1022.82 1022.58 1022.35 1022.09 1021.79 1021.42 1020.98 1020.47 1019.90 1019.30 1018.68 1018.05 1017.43 1016.83 1016.24 1015.67 1015.12 1014.61 1014.14 1013.73 1013.39 1013.13 1012.94 1012.82 1012.77
1027.13 1026.81 1026.47 1026.20 1026.03 1025.97 1026.00 1026.07 1026.14 1026.15 1026.07 1025.88 1025.60 1025.26 1024.88 1024.52 1024.19 1023.92 1023.69 1023.48 1023.26 1023.02 1022.71 1022.33 1021.89 1021.39 1020.86 1020.30 1019.74 1019.17 1018.60 1018.02 1017.43 1016.82 1016.20 1015.58 1014.99 1014.45 1013.97 1013.59 1013.30 1013.09 1012.97
1027.48 1027.24 1026.98 1026.76 1026.64 1026.61 1026.66 1026.75 1026.83 1026.85 1026.77 1026.59 1026.32 1025.99 1025.64 1025.32 1025.03 1024.79 1024.59 1024.40 1024.19 1023.94 1023.62 1023.25 1022.82 1022.36 1021.87 1021.39 1020.91 1020.42 1019.93 1019.39 1018.82 1018.19 1017.51 1016.81 1016.11 1015.45 1014.85 1014.34 1013.93 1013.63 1013.41
1027.67 1027.53 1027.35 1027.19 1027.11 1027.11 1027.19 1027.30 1027.39 1027.43 1027.37 1027.21 1026.97 1026.69 1026.39 1026.10 1025.86 1025.66 1025.48 1025.29 1025.08 1024.82 1024.50 1024.13 1023.73 1023.30 1022.88 1022.48 1022.09 1021.70 1021.28 1020.81 1020.26 1019.63 1018.92 1018.16 1017.38 1016.62 1015.91 1015.29 1014.78 1014.36 1014.03
Thickness
5762 5766 5768 5769 5770 5771 5771 5771 5772 5772 5773 5773 5774 5775 5775 5775 5775 5775 5775 5775 5776 5776 5776 5775 5774 5773 5773 5773 5773 5773 5773 5773 5773 5772 5771 5771 5770 5770 5769 5769 5768 5768 5768
5764 5766 5767 5768 5768 5769 5769 5769 5770 5770 5771 5772 5772 5773 5773 5773 5772 5773 5773 5773 5774 5775 5774 5772 5771 5770 5770 5770 5770 5770 5769 5770 5769 5769 5769 5768 5768 5768 5767 5766 5766 5765 5765
5764 5765 5766 5766 5767 5767 5767 5767 5768 5768 5769 5769 5771 5772 5772 5771 5770 5770 5770 5770 5771 5772 5771 5770 5768 5768 5767 5767 5767 5767 5767 5767 5767 5766 5766 5766 5765 5765 5765 5764 5764 5764 5763
5763 5763 5764 5764 5765 5765 5765 5765 5765 5766 5766 5767 5768 5769 5769 5768 5767 5767 5767 5767 5768 5768 5768 5766 5765 5765 5764 5764 5764 5764 5764 5764 5763 5763 5762 5762 5762 5762 5762 5762 5762 5761 5761
5761 5761 5762 5762 5763 5763 5762 5762 5763 5763 5763 5764 5764 5765 5765 5764 5764 5763 5764 5764 5764 5764 5764 5763 5763 5762 5762 5762 5762 5761 5761 5761 5760 5759 5759 5759 5759 5759 5760 5759 5760 5759 5758
5759 5759 5760 5760 5760 5760 5760 5760 5760 5761 5761 5761 5761 5761 5761 5761 5761 5760 5760 5761 5761 5761 5761 5760 5760 5759 5759 5759 5759 5758 5758 5757 5756 5756 5756 5756 5756 5756 5757 5757 5757 5756 5756
5756 5757 5757 5758 5758 5758 5758 5758 5758 5758 5758 5758 5758 5758 5758 5758 5757 5757 5757 5757 5757 5757 5757 5757 5757 5757 5756 5756 5755 5755 5755 5754 5753 5752 5752 5752 5753 5753 5754 5754 5754 5753 5753
5754 5754 5754 5755 5755 5755 5755 5755 5755 5755 5755 5755 5754 5754 5754 5754 5754 5754 5754 5754 5754 5753 5753 5753 5753 5753 5753 5752 5752 5751 5751 5750 5749 5749 5749 5749 5750 5750 5750 5750 5750 5750 5750
5751 5751 5751 5751 5752 5752 5752 5752 5751 5751 5751 5751 5750 5750 5750 5750 5750 5750 5750 5750 5750 5749 5749 5749 5749 5749 5748 5748 5747 5747 5747 5746 5745 5745 5745 5746 5746 5747 5747 5747 5747 5746 5746
5747 5747 5747 5748 5748 5748 5748 5748 5748 5747 5747 5747 5746 5746 5746 5746 5746 5746 5746 5746 5746 5745 5745 5745 5744 5744 5744 5743 5743 5743 5742 5742 5741 5741 5742 5742 5743 5743 5743 5743 5743 5742 5742
5743 5743 5744 5744 5744 5744 5744 5744 5743 5743 5743 5743 5742 5741 5741 5741 5741 5742 5742 5742 5742 5741 5741 5740 5739 5739 5738 5738 5738 5738 5738 5737 5737 5737 5738 5738 5739 5739 5739 5739 5739 5738 5738
5736 5738 5740 5740 5740 5740 5740 5740 5739 5739 5738 5738 5738 5737 5737 5737 5737 5737 5737 5737 5736 5736 5736 5735 5734 5733 5733 5732 5732 5732 5732 5733 5733 5733 5734 5734 5735 5735 5735 5734 5734 5734 5734
5733 5735 5736 5736 5736 5736 5736 5735 5735 5734 5734 5733 5733 5733 5733 5732 5732 5732 5732 5731 5731 5731 5730 5729 5729 5728 5727 5727 5727 5727 5727 5727 5727 5728 5729 5730 5730 5730 5730 5730 5730 5730 5730
5730 5731 5733 5733 5733 5732 5732 5731 5730 5730 5729 5728 5728 5728 5728 5728 5727 5727 5726 5726 5726 5725 5725 5724 5723 5723 5722 5722 5721 5721 5722 5722 5722 5723 5723 5724 5725 5726 5725 5725 5725 5725 5725
5726 5727 5728 5729 5729 5728 5728 5727 5726 5725 5725 5724 5723 5723 5723 5723 5722 5722 5721 5721 5721 5721 5720 5719 5718 5718 5717 5717 5716 5716 5716 5716 5716 5717 5717 5718 5719 5720 5720 5720 5721 5720 5720
5723 5723 5724 5725 5725 5724 5724 5722 5721 5721 5720 5720 5719 5719 5719 5718 5718 5717 5717 5716 5716 5715 5715 5714 5714 5713 5712 5711 5711 5711 5711 5711 5711 5712 5712 5713 5714 5714 5715 5715 5715 5715 5715
5720 5721 5721 5721 5721 5720 5719 5718 5717 5716 5716 5715 5715 5714 5714 5714 5713 5713 5712 5712 5711 5711 5710 5710 5709 5708 5707 5706 5706 5706 5706 5706 5706 5706 5707 5707 5708 5708 5709 5710 5710 5710 5710
5717 5717 5717 5718 5716 5715 5714 5714 5713 5712 5711 5711 5710 5710 5710 5709 5709 5708 5708 5707 5707 5706 5706 5705 5704 5702 5701 5700 5700 5700 5700 5701 5701 5701 5701 5702 5702 5702 5703 5704 5705 5704 5704
5715 5714 5713 5713 5711 5710 5709 5709 5708 5708 5707 5706 5706 5705 5705 5705 5704 5704 5703 5702 5702 5702 5701 5701 5698 5697 5695 5695 5695 5695 5695 5695 5695 5696 5696 5696 5696 5697 5697 5698 5698 5699 5699
5712 5710 5709 5708 5707 5706 5705 5704 5703 5702 5702 5702 5701 5701 5701 5700 5700 5699 5698 5698 5697 5697 5695 5695 5693 5692 5691 5690 5691 5689 5689 5689 5689 5690 5690 5691 5691 5691 5692 5692 5693 5693 5693
5707 5706 5705 5704 5703 5702 5700 5698 5696 5696 5696 5696 5696 5696 5696 5696 5696 5695 5694 5693 5692 5691 5690 5689 5688 5687 5685 5685 5684 5682 5682 5683 5684 5684 5684 5685 5686 5686 5687 5687 5687 5687 5688
5703 5702 5701 5700 5699 5698 5697 5695 5693 5692 5692 5692 5692 5692 5692 5692 5692 5691 5690 5689 5688 5687 5685 5684 5683 5681 5680 5680 5679 5676 5673 5674 5677 5679 5679 5679 5680 5681 5681 5681 5682 5682 5682
5698 5698 5698 5697 5696 5695 5693 5691 5689 5687 5686 5685 5686 5686 5687 5687 5688 5687 5686 5685 5684 5683 5681 5680 5679 5677 5675 5674 5674 5672 5668 5666 5667 5670 5672 5673 5674 5674 5675 5676 5677 5677 5677
5694 5694 5694 5693 5691 5690 5689 5686 5684 5681 5679 5679 5680 5681 5682 5683 5683 5683 5682 5681 5680 5678 5677 5676 5675 5673 5672 5669 5668 5667 5667 5666 5663 5662 5665 5666 5668 5668 5669 5670 5671 5672 5672
5691 5689 5688 5687 5686 5685 5683 5682 5679 5677 5676 5675 5675 5676 5677 5677 5677 5677 5677 5677 5675 5674 5673 5672 5670 5669 5668 5665 5663 5662 5661 5660 5659 5658 5656 5658 5660 5662 5664 5664 5665 5666 5666
5685 5684 5682 5681 5679 5678 5677 5676 5675 5672 5670 5669 5669 5669 5670 5671 5671 5672 5671 5671 5670 5669 5668 5667 5666 5664 5663 5661 5660 5658 5657 5656 5654 5653 5652 5651 5652 5655 5658 5659 5659 5660 5661